Weather History for KASJ - January, 2014

Change the Weather History Date:

Monday, January 20, 2014

  Actual Average Record
Temperature  
Mean Temperature 47 °F -  
Max Temperature 62 °F - - ()
Min Temperature 32 °F - - ()
Degree Days  
Heating Degree Days 18    
Moisture  
Dew Point 29 °F    
Average Humidity 56    
Maximum Humidity 83    
Minimum Humidity 28    
Precipitation  
Precipitation 0.00 in - - ()
Sea Level Pressure  
Sea Level Pressure 29.83 in    
Wind  
Wind Speed 1 mph (SSW)    
Max Wind Speed 7 mph    
Max Gust Speed -    
Visibility 10 miles    
Events      
T = Trace of Precipitation, MM = Missing Value Source: NWS Daily Summary

Daily Weather History Graph

Daily Weather History Graph

Search for Another Location

Airport or City:

Trip Planner

Search our weather history database for the weather conditions in past years. The results will help you decide how hot, cold, wet, or windy it might be!

Date:

Astronomy

Jan. 20, 2014 Rise Set
Actual Time 7:17 AM EST 5:22 PM EST
Civil Twilight 6:49 AM EST 5:50 PM EST
Nautical Twilight 6:18 AM EST 6:21 PM EST
Astronomical Twilight 5:47 AM EST 6:52 PM EST
Moon 9:46 PM EST (1/20) 9:24 AM EST (1/20)
Length of Visible Light 11h 00m
Length of Day
10h 05m
Waning Gibbous, 83% of the Moon is Illuminated
Jan 20
Waning Gibbous
Jan 24
Last Quarter
Jan 30
New
Feb 6
First Quarter
Feb 14
Full

Hourly Weather History & Observations

Time (EST) Temp. Windchill Dew Point Humidity Pressure Visibility Wind Dir Wind Speed Gust Speed Precip Events Conditions
12:15 AM 34.7 °F - 26.6 °F 72% 29.91 in 10.0 mi Calm Calm - N/A   Clear
12:35 AM 34.3 °F - 26.8 °F 74% 29.91 in 10.0 mi Calm Calm - N/A   Clear
12:55 AM 32.9 °F - 25.9 °F 75% 29.90 in 10.0 mi Calm Calm - N/A   Clear
1:15 AM 35.2 °F - 26.4 °F 70% 29.89 in 10.0 mi Calm Calm - N/A   Clear
1:35 AM 34.7 °F - 27.0 °F 73% 29.88 in 10.0 mi Calm Calm - N/A   Clear
1:55 AM 34.5 °F - 26.6 °F 73% 29.88 in 10.0 mi Calm Calm - N/A   Clear
2:15 AM 34.9 °F - 26.8 °F 72% 29.88 in 10.0 mi Calm Calm - N/A   Clear
2:35 AM 34.3 °F - 27.0 °F 74% 29.88 in 10.0 mi Calm Calm - N/A   Clear
2:55 AM 35.1 °F - 26.6 °F 71% 29.88 in 10.0 mi Calm Calm - N/A   Clear
3:15 AM 34.9 °F - 27.1 °F 73% 29.87 in 10.0 mi Calm Calm - N/A   Clear
3:35 AM 35.1 °F - 27.1 °F 73% 29.87 in 10.0 mi Calm Calm - N/A   Clear
3:55 AM 34.7 °F - 27.1 °F 74% 29.87 in 10.0 mi Calm Calm - N/A   Clear
4:15 AM 36.7 °F 34.1 °F 27.5 °F 69% 29.87 in 10.0 mi SSW 3.5 mph - N/A   Clear
4:35 AM 34.9 °F - 28.0 °F 76% 29.87 in 10.0 mi Calm Calm - N/A   Clear
4:55 AM 34.7 °F - 27.5 °F 75% 29.86 in 10.0 mi Calm Calm - N/A   Clear
5:15 AM 34.0 °F - 27.5 °F 77% 29.86 in 10.0 mi Calm Calm - N/A   Clear
5:35 AM 35.8 °F - 27.3 °F 71% 29.86 in 10.0 mi Calm Calm - N/A   Clear
5:50 AM 34.2 °F - 27.3 °F 76% 29.86 in 10.0 mi Calm Calm - N/A   Clear
6:15 AM 32.4 °F - 27.3 °F 82% 29.86 in 10.0 mi Calm Calm - N/A   Clear
6:35 AM 33.8 °F 30.8 °F 27.1 °F 77% 29.86 in 10.0 mi SSW 3.5 mph - N/A   Clear
6:55 AM 34.0 °F - 27.7 °F 78% 29.86 in 10.0 mi Calm Calm - N/A   Clear
7:15 AM 33.3 °F 30.2 °F 27.5 °F 79% 29.86 in 10.0 mi SSW 3.5 mph - N/A   Clear
7:35 AM 32.2 °F - 27.5 °F 83% 29.87 in 10.0 mi Calm Calm - N/A   Clear
7:55 AM 34.5 °F - 28.8 °F 79% 29.87 in 10.0 mi Calm Calm - N/A   Clear
8:15 AM 37.0 °F 34.5 °F 29.5 °F 74% 29.86 in 10.0 mi SSW 3.5 mph - N/A   Clear
8:35 AM 39.2 °F 35.9 °F 30.2 °F 70% 29.86 in 10.0 mi SSW 4.6 mph - N/A   Clear
8:55 AM 41.5 °F 39.6 °F 31.3 °F 67% 29.86 in 10.0 mi SW 3.5 mph - N/A   Clear
9:15 AM 43.0 °F - 30.9 °F 62% 29.87 in 10.0 mi Calm Calm - N/A   Clear
9:35 AM 44.8 °F - 30.7 °F 58% 29.87 in 10.0 mi Calm Calm - N/A   Clear
9:50 AM 46.6 °F - 30.4 °F 53% 29.86 in 10.0 mi Calm Calm - N/A   Clear
10:15 AM 48.0 °F - 29.3 °F 48% 29.86 in 10.0 mi SSW 4.6 mph - N/A   Clear
10:35 AM 50.2 °F - 28.9 °F 44% 29.85 in 10.0 mi SW 4.6 mph - N/A   Clear
10:55 AM 51.6 °F - 28.4 °F 41% 29.84 in 10.0 mi SSW 3.5 mph - N/A   Clear
11:15 AM 53.2 °F - 28.0 °F 38% 29.83 in 10.0 mi SW 3.5 mph - N/A   Clear
11:35 AM 55.0 °F - 27.7 °F 35% 29.81 in 10.0 mi SSW 6.9 mph - N/A   Clear
11:55 AM 56.7 °F - 27.1 °F 32% 29.80 in 10.0 mi SSW 4.6 mph - N/A   Clear
12:15 PM 57.2 °F - 27.1 °F 32% 29.79 in 10.0 mi Calm Calm - N/A   Clear
12:35 PM 58.5 °F - 28.0 °F 31% 29.78 in 10.0 mi SSW 5.8 mph - N/A   Clear
12:55 PM 59.9 °F - 28.8 °F 31% 29.78 in 10.0 mi SW 3.5 mph - N/A   Clear
1:15 PM 60.4 °F - 28.8 °F 30% 29.76 in 10.0 mi SW 3.5 mph - N/A   Clear
1:35 PM 61.5 °F - 28.8 °F 29% 29.75 in 10.0 mi SSW 5.8 mph - N/A   Clear
1:55 PM 61.3 °F - 28.0 °F 28% 29.75 in 10.0 mi SSW 5.8 mph - N/A   Clear
2:15 PM 62.2 °F - 28.8 °F 28% 29.75 in 10.0 mi SW 3.5 mph - N/A   Clear
2:35 PM 62.4 °F - 29.3 °F 29% 29.75 in 10.0 mi SSW 4.6 mph - N/A   Clear
2:55 PM 62.6 °F - 29.3 °F 28% 29.75 in 10.0 mi SW 4.6 mph - N/A   Clear
3:15 PM 62.1 °F - 28.9 °F 29% 29.75 in 10.0 mi SW 4.6 mph - N/A   Clear
3:35 PM 61.7 °F - 29.1 °F 29% 29.75 in 10.0 mi SSW 6.9 mph - N/A   Clear
3:55 PM 60.6 °F - 29.3 °F 31% 29.76 in 10.0 mi SW 5.8 mph - N/A   Clear
4:15 PM 59.4 °F - 29.1 °F 32% 29.77 in 10.0 mi SSW 4.6 mph - N/A   Clear
4:35 PM 58.5 °F - 29.5 °F 33% 29.77 in 10.0 mi SSW 3.5 mph - N/A   Clear
4:55 PM 57.2 °F - 29.5 °F 35% 29.78 in 10.0 mi SSW 3.5 mph - N/A   Clear
5:15 PM 55.4 °F - 29.1 °F 37% 29.79 in 10.0 mi SSW 3.5 mph - N/A   Clear
5:35 PM 52.3 °F - 29.8 °F 42% 29.80 in 10.0 mi SSW 3.5 mph - N/A   Clear
5:55 PM 52.2 °F - 30.0 °F 43% 29.81 in 10.0 mi SSW 3.5 mph - N/A   Clear
6:15 PM 49.5 °F - 31.6 °F 50% 29.81 in 10.0 mi Calm Calm - N/A   Clear
6:35 PM 48.4 °F - 30.7 °F 51% 29.83 in 10.0 mi Calm Calm - N/A   Clear
6:55 PM 47.1 °F - 31.1 °F 54% 29.83 in 10.0 mi Calm Calm - N/A   Clear
7:15 PM 47.1 °F - 30.2 °F 52% 29.83 in 10.0 mi Calm Calm - N/A   Clear
7:35 PM 46.6 °F - 30.7 °F 54% 29.83 in 10.0 mi Calm Calm - N/A   Clear
7:55 PM 47.3 °F - 30.2 °F 52% 29.84 in 10.0 mi Calm Calm - N/A   Clear
8:15 PM 44.4 °F - 31.8 °F 61% 29.84 in 10.0 mi Calm Calm - N/A   Clear
8:35 PM 44.6 °F - 31.6 °F 60% 29.85 in 10.0 mi Calm Calm - N/A   Clear
8:55 PM 44.1 °F - 31.6 °F 62% 29.85 in 10.0 mi Calm Calm - N/A   Clear
9:15 PM 43.7 °F - 31.6 °F 63% 29.86 in 10.0 mi Calm Calm - N/A   Clear
9:35 PM 42.8 °F - 31.1 °F 63% 29.86 in 10.0 mi Calm Calm - N/A   Clear